Weather History for Broomfield, CO

Change the Weather History Date:

Tuesday, January 21, 2014

  Actual Average Record
Temperature  
Mean Temperature 45 °F -  
Max Temperature 62 °F 44 °F 71 °F (2009)
Min Temperature 28 °F 25 °F 2 °F (1991)
Degree Days  
Heating Degree Days 20    
Moisture  
Dew Point 1 °F    
Average Humidity 23    
Maximum Humidity 55    
Minimum Humidity 5    
Precipitation  
Precipitation 0.00 in - - ()
Sea Level Pressure  
Sea Level Pressure 30.19 in    
Wind  
Wind Speed 10 mph (WSW)    
Max Wind Speed 26 mph    
Max Gust Speed 39 mph    
Visibility 10 miles    
Events      
Averages and records for this station are not official NWS values.
T = Trace of Precipitation, MM = Missing Value Source: NWS Daily Summary

Daily Weather History Graph

Daily Weather History Graph

Search for Another Location

Airport:

Trip Planner

Search our weather history database for the weather conditions in past years. The results will help you decide how hot, cold, wet, or windy it might be!

Date:

Astronomy

Jan. 21, 2014 Rise Set
Actual Time 7:17 AM MST 5:06 PM MST
Civil Twilight 6:47 AM MST 5:36 PM MST
Nautical Twilight 6:14 AM MST 6:09 PM MST
Astronomical Twilight 5:42 AM MST 6:41 PM MST
Moon 10:41 PM MST (1/21) 9:48 AM MST (1/21)
Length of Visible Light 10h 48m
Length of Day
9h 49m
Waning Gibbous, 74% of the Moon is Illuminated
Jan 21
Waning Gibbous
Jan 23
Last Quarter
Jan 30
New
Feb 6
First Quarter
Feb 14
Full

Hourly Weather History & Observations

Time (MST) Temp. Windchill Dew Point Humidity Pressure Visibility Wind Dir Wind Speed Gust Speed Precip Events Conditions
12:15 AM 30.2 °F 25.4 °F 15.8 °F 55% 30.31 in 10.0 mi West 4.6 mph - N/A   Clear
12:35 AM 30.2 °F 26.7 °F 15.8 °F 55% 30.30 in 10.0 mi WSW 3.5 mph - N/A   Clear
12:55 AM 30.2 °F 25.4 °F 15.8 °F 55% 30.30 in 10.0 mi WSW 4.6 mph - N/A   Clear
1:14 AM 30.2 °F 26.7 °F 14.0 °F 51% 30.29 in 10.0 mi SW 3.5 mph - N/A   Clear
1:35 AM 30.2 °F 26.7 °F 14.0 °F 51% 30.28 in 10.0 mi WSW 3.5 mph - N/A   Clear
1:55 AM 32.0 °F 27.5 °F 12.2 °F 44% 30.27 in 10.0 mi South 4.6 mph - N/A   Clear
2:15 AM 30.2 °F 21.9 °F 10.4 °F 44% 30.27 in 10.0 mi WSW 9.2 mph - N/A   Clear
2:35 AM 28.4 °F 20.4 °F 10.4 °F 47% 30.27 in 10.0 mi West 8.1 mph - N/A   Clear
2:55 AM 32.0 °F 27.5 °F 5.0 °F 32% 30.26 in 10.0 mi WSW 4.6 mph - N/A   Clear
3:15 AM 33.8 °F 29.6 °F 3.2 °F 28% 30.25 in 10.0 mi SW 4.6 mph - N/A   Clear
3:35 AM 32.0 °F 27.5 °F 1.4 °F 27% 30.24 in 10.0 mi West 4.6 mph - N/A   Clear
3:54 AM 37.4 °F 33.8 °F -4.0 °F 17% 30.24 in 10.0 mi West 4.6 mph - N/A   Clear
4:15 AM 35.6 °F 28.0 °F -4.0 °F 18% 30.23 in 10.0 mi West 10.4 mph - N/A   Clear
4:34 AM 37.4 °F 28.5 °F -4.0 °F 17% 30.22 in 10.0 mi West 15.0 mph - N/A   Clear
4:54 AM 42.8 °F 34.5 °F -4.0 °F 14% 30.21 in 10.0 mi WNW 18.4 mph - N/A   Clear
5:47 AM 44.6 °F 36.1 °F -5.8 °F 12% 30.20 in 30.0 mi West 21.9 mph - N/A   Partly Cloudy
6:20 AM 48.2 °F - -9.4 °F 9% 30.19 in 30.0 mi West 26.5 mph 34.5 mph N/A   Partly Cloudy
7:48 AM 50.0 °F - -9.4 °F 8% 30.17 in 30.0 mi West 23.0 mph 33.4 mph N/A   Partly Cloudy
8:55 AM 53.6 °F - -9.4 °F 7% 30.18 in 60.0 mi West 24.2 mph 34.5 mph N/A   Clear
9:47 AM 57.2 °F - -7.6 °F 7% 30.18 in 60.0 mi West 18.4 mph 25.3 mph N/A   Clear
10:47 AM 59.0 °F - -7.6 °F 6% 30.18 in 60.0 mi West 20.7 mph 29.9 mph N/A   Partly Cloudy
11:47 AM 60.8 °F - -7.6 °F 6% 30.15 in 60.0 mi West 23.0 mph 35.7 mph N/A   Partly Cloudy
12:47 PM 62.6 °F - -9.4 °F 5% 30.11 in 60.0 mi West 21.9 mph 33.4 mph N/A   Partly Cloudy
1:46 PM 60.8 °F - -5.8 °F 7% 30.10 in 60.0 mi West 25.3 mph 39.1 mph N/A   Clear
2:45 PM 62.6 °F - -7.6 °F 6% 30.08 in 50.0 mi West 19.6 mph 28.8 mph N/A   Clear
3:45 PM 60.8 °F - -9.4 °F 6% 30.09 in 40.0 mi West 17.3 mph 23.0 mph N/A   Clear
4:53 PM 55.4 °F - -5.8 °F 8% 30.10 in 40.0 mi West 17.3 mph 24.2 mph N/A   Clear
5:53 PM 50.0 °F - -7.6 °F 9% 30.11 in 30.0 mi West 17.3 mph - N/A   Clear
6:46 PM 44.6 °F 40.2 °F -7.6 °F 11% 30.12 in 30.0 mi WSW 8.1 mph - N/A   Clear
7:47 PM 44.6 °F 41.4 °F -0.4 °F 15% 30.14 in 30.0 mi Variable 5.8 mph - N/A   Clear
8:05 PM 42.8 °F 35.8 °F 3.2 °F 19% 30.14 in 30.0 mi SE 13.8 mph - N/A   Clear
8:55 PM 41.0 °F 34.3 °F 6.8 °F 24% 30.14 in 30.0 mi South 11.5 mph - N/A   Clear
9:53 PM 41.0 °F 35.8 °F 3.2 °F 21% 30.14 in 20.0 mi SSE 8.1 mph - N/A   Clear
10:15 PM 41.0 °F 35.2 °F 5.0 °F 23% 30.15 in 10.0 mi SSE 9.2 mph - N/A   Clear
10:35 PM 39.2 °F 33.0 °F 5.0 °F 24% 30.15 in 10.0 mi SSE 9.2 mph - N/A   Clear
10:55 PM 39.2 °F 33.0 °F 5.0 °F 24% 30.16 in 10.0 mi SSE 9.2 mph - N/A   Clear
11:15 PM 39.2 °F 33.6 °F 5.0 °F 24% 30.15 in 10.0 mi South 8.1 mph - N/A   Clear
11:35 PM 37.4 °F 30.8 °F 5.0 °F 26% 30.15 in 10.0 mi South 9.2 mph - N/A   Clear
11:54 PM 37.4 °F 32.8 °F 8.6 °F 30% 30.14 in 10.0 mi South 5.8 mph - N/A   Clear